Location: Caoba
(9.7667°N, 67.4833°W)
Time: 20:17:14
(UTC+00:00)

GOES 2 Rocket - Pass Details

Date: 05 December 2024
Orbit: 569 x 1662 km, 28.4° (Epoch: 14 January)

Event Time Altitude Azimuth Distance (km) Brightness Sun altitude
Rises 00:03:06 0° 209° (SSW) 4,516 8.2 -27.3°
Reaches altitude 10° 00:08:07 10° 188° (S) 3,305 7.1 -28.5°
Maximum altitude 00:12:22 15° 157° (SSE) 2,722 6.3 -29.5°
Enters shadow 00:13:28 14° 147° (SSE) 2,691 6.2 -29.7°
